Tracking 17887 objects as of 11-December-2016
HD Live streaming from Space Station
objects crossing your sky now

CZ-3C R/B

Track CZ-3C R/B now!
10-day predictions


NORAD ID: 36591
Int'l Code: 2010-024B
Perigee: 180.8 km
Apogee: 18,134.9 km
Inclination: 20.7 °
Period: 321.0 minutes
Semi major axis: 15528 km
RCS: 15.0139 m2 (large)
Launch date: June 2, 2010
Source: People's Republic of China (PRC)
Launch site: Xichang Space Center, China (XSC)

Note: This is a ROCKET BODY
Your satellite tracking list
Your tracking list is empty





NASA's NSSDC Master Catalog

Two Line Element Set (TLE):
1 36591U 10024B   16345.43842660  .00088550  46596-6  10636-2 0  9993
2 36591  20.7035  76.4032 5780912 344.2587   3.4904  4.48636136 78118
Source of the keplerian elements: AFSPC